Location: Buckland
(65.9785°N, 161.1281°W)
Time: 21:31:37
(UTC+00:00)

SPROUT - Pass Details

Date: 22 January 2021
Orbit: 597 x 610 km, 97.9° (Epoch: 07 March)

Event Time Altitude Azimuth Distance (km) Brightness Sun altitude
Exits shadow 07:53:38 11° 353° (N) 1,944 ? -35.1°
Drops below altitude 10° 07:53:46 10° 352° (N) 1,979 ? -35.1°
Sets 07:56:31 0° 334° (NNW) 2,888 ? -35.3°
